This demonstration page uses our WeatherBlox Daily Observations layout. Learn more.

Hourly Observations for July 30, 2018

Temp ( °F °C ) Dew Point ( °F °C ) Humidity (%) Winds ( mph kmh ) Pressure ( in mb ) Visibility ( mi km ) Precip ( " mm )
12:15 am 00:15 Mostly Cloudy with Mist and Fog 63 17.4 63 17.4 100 100 N 5 7 30.06 1018 5 8.0467 0 0
12:35 am 00:35 Partly Cloudy with Mist and Fog 63 17 63 17 100 100 NNE 6 9 30.09 1019 5 8.0467 0 0
12:55 am 00:55 Mostly Cloudy with Mist and Fog 62 16.6 62 16.6 100 100 N 3 6 30.09 1019 4 6.43736 0 0
1:15 am 01:15 Cloudy with Mist and Fog 62 16.7 62 16.7 100 100 NE 3 6 30.09 1019 3 4.82802 0 0
1:35 am 01:35 Cloudy with Mist and Fog 63 17 63 17 100 100 Calm 30.09 1019 4 6.43736 0 0
1:55 am 01:55 Cloudy with Mist and Fog 63 17.1 63 17.1 100 100 Calm 30.09 1019 4 6.43736 0 0
2:15 am 02:15 Mostly Cloudy with Mist and Fog 62 16.8 62 16.8 100 100 Calm 30.09 1019 4 6.43736 0 0
2:35 am 02:35 Partly Cloudy with Mist and Fog 61 16.2 61 16.2 100 100 Calm 30.09 1019 2 3.21868 0 0
2:55 am 02:55 Mostly Cloudy with Mist and Fog 61 16.2 61 16.2 100 100 NNW 5 7 30.09 1019 2.5 4.02335 0 0
3:15 am 03:15 Cloudy with Mist and Fog 61 16.1 61 16.1 100 100 Calm 30.09 1019 2.5 4.02335 0 0
3:35 am 03:35 Mostly Cloudy with Mist and Fog 60 15.6 60 15.6 100 100 Calm 30.09 1019 2 3.21868 0 0
3:55 am 03:55 Partly Cloudy with Mist and Fog 60 15.6 60 15.6 100 100 W 3 6 30.09 1019 2.5 4.02335 0 0
4:15 am 04:15 Partly Cloudy with Mist and Fog 60 15.7 60 15.7 100 100 WNW 3 6 30.09 1019 2.5 4.02335 0 0
4:35 am 04:35 Partly Cloudy with Mist and Fog 60 15.7 60 15.7 100 100 WNW 3 6 30.09 1019 2.5 4.02335 0 0
4:55 am 04:55 Clear with Mist and Fog 60 15.6 60 15.6 100 100 WNW 7 11 30.09 1019 3 4.82802 0 0
5:15 am 05:15 Clear with Mist and Fog 60 15.5 60 15.5 100 100 WNW 6 9 30.09 1019 4 6.43736 0 0
5:35 am 05:35 Partly Cloudy with Mist and Fog 60 15.5 60 15.5 100 100 WNW 6 9 30.09 1019 5 8.0467 0 0
5:55 am 05:55 Cloudy 61 16 61 16 100 100 NW 7 11 30.09 1019 7 11.26538 0 0
6:15 am 06:15 Cloudy with Thunderstorms 61 16.2 61 16.2 100 100 N 6 9 30.09 1019 10 16.0934 0 0
6:35 am 06:35 Cloudy with Thunderstorms 61 16 60 15.7 98 98 NNE 14 22 30.09 1019 10 16.0934 0 0
6:55 am 06:55 Mostly Cloudy 59 15.1 58 14.5 96 96 N 9 15 30.09 1019 10 16.0934 0 0
7:15 am 07:15 Partly Cloudy 59 14.8 58 14.3 97 97 N 10 17 30.09 1019 10 16.0934 0 0
7:35 am 07:35 Partly Cloudy 58 14.7 58 14.5 99 99 NNE 8 13 30.09 1019 10 16.0934 0 0
7:55 am 07:55 Partly Cloudy 59 14.8 58 14.6 99 99 NNE 6 9 30.09 1019 10 16.0934 0 0
8:15 am 08:15 Partly Cloudy 59 15.1 59 15 99 99 Calm 30.12 1020 10 16.0934 0 0
8:35 am 08:35 Partly Cloudy 60 15.7 60 15.6 99 99 Calm 30.12 1020 10 16.0934 0 0
8:55 am 08:55 Sunny 63 17 60 15.4 90 90 NE 3 6 30.12 1020 10 16.0934 0 0
9:15 am 09:15 Sunny 64 17.8 60 15.8 88 88 Calm 30.06 1018 10 16.0934 0 0
9:35 am 09:35 Sunny 65 18.2 60 15.6 85 85 Calm 30.09 1019 10 16.0934 0 0
9:55 am 09:55 Partly Cloudy 66 18.7 61 16.2 85 85 NNW 3 6 30.09 1019 10 16.0934 0 0
10:15 am 10:15 Mostly Cloudy 66 18.9 62 16.5 86 86 NW 5 7 30.09 1019 10 16.0934 0 0
10:35 am 10:35 Mostly Cloudy 67 19.3 63 17.1 87 87 N 3 6 30.09 1019 10 16.0934 0 0
10:55 am 10:55 Mostly Cloudy 68 19.8 62 16.8 83 83 N 3 6 30.09 1019 10 16.0934 0 0
11:15 am 11:15 Mostly Cloudy 68 19.8 62 16.9 83 83 NNE 5 7 30.09 1019 10 16.0934 0 0
11:35 am 11:35 Mostly Cloudy 68 20 61 16 78 78 N 8 13 30.09 1019 10 16.0934 0 0
11:55 am 11:55 Mostly Cloudy 70 21.1 61 16 73 73 Calm 30.06 1018 10 16.0934 0 0
12:15 pm 12:15 Partly Cloudy 71 21.5 60 15.3 68 68 N 5 7 30.06 1018 10 16.0934 0 0
12:35 pm 12:35 Partly Cloudy 72 22.1 61 16.1 69 69 Calm 30.03 1017 10 16.0934 0 0
12:55 pm 12:55 Mostly Cloudy 71 21.4 58 14.6 65 65 NE 5 7 30.03 1017 10 16.0934 0 0
1:15 pm 13:15 Cloudy 71 21.5 60 15.6 69 69 N 7 11 30.03 1017 10 16.0934 0 0
1:35 pm 13:35 Cloudy 71 21.5 63 17.1 76 76 NNE 10 17 30.03 1017 10 16.0934 0 0
1:55 pm 13:55 Cloudy 71 21.4 62 16.6 74 74 NE 15 24 30.03 1017 10 16.0934 0 0
2:15 pm 14:15 Cloudy with Thunderstorms 68 20.2 60 15.8 76 76 ENE 13 20 30.06 1018 10 16.0934 0 0
2:35 pm 14:35 Mostly Cloudy with Thunderstorms 67 19.3 60 15.6 79 79 NE 13 20 30.06 1018 10 16.0934 0 0
2:55 pm 14:55 Mostly Cloudy with Thunderstorms 61 15.9 57 14 89 89 NNW 14 22 30.12 1020 5 8.0467 0.02 0.508
3:15 pm 15:15 Cloudy with Light Thunderstorms 60 15.5 57 13.9 90 90 N 5 7 30.12 1020 10 16.0934 0.01 0.254
3:35 pm 15:35 Mostly Cloudy 60 15.5 58 14.5 94 94 NNW 3 6 30.12 1020 10 16.0934 0.01 0.254
3:55 pm 15:55 Partly Cloudy with Nearby Thunderstorms 62 16.7 60 15.3 92 92 Calm 30.12 1020 10 16.0934 0.01 0.254
4:15 pm 16:15 Partly Cloudy 66 19.1 62 16.5 85 85 NNW 3 6 30.09 1019 10 16.0934 0 0
4:35 pm 16:35 Mostly Cloudy with Light Rain 66 19 61 16.1 83 83 Calm 30.09 1019 10 16.0934 0 0
4:55 pm 16:55 Cloudy with Light Rain 68 19.8 63 17 84 84 N 5 7 30.09 1019 10 16.0934 0 0
5:15 pm 17:15 Cloudy with Light Rain 67 19.5 61 16.1 81 81 NNE 3 6 30.09 1019 10 16.0934 0 0
5:35 pm 17:35 Mostly Cloudy 67 19.3 61 16.1 82 82 NNW 3 6 30.09 1019 10 16.0934 0 0
5:55 pm 17:55 Partly Cloudy 68 20.2 63 17.3 84 84 NW 5 7 30.09 1019 10 16.0934 0 0
6:15 pm 18:15 Partly Cloudy 69 20.6 64 17.6 83 83 NW 7 11 30.09 1019 10 16.0934 0 0
6:35 pm 18:35 Cloudy 60 15.7 57 14 90 90 Calm 30.15 1021 1.25 2.011675 0.29 7.366
6:55 pm 18:55 Mostly Cloudy 61 16.3 60 15.6 96 96 WNW 3 6 30.15 1021 10 16.0934 0.3 7.62
7:15 pm 19:15 Cloudy 65 18.1 61 16.3 89 89 N 5 7 30.09 1019 10 16.0934 0 0
7:35 pm 19:35 Mostly Cloudy 65 18.3 60 15.7 85 85 NNE 6 9 30.09 1019 10 16.0934 0 0
7:55 pm 19:55 Partly Cloudy 65 18.1 60 15.6 85 85 NNE 6 9 30.09 1019 10 16.0934 0 0
8:15 pm 20:15 Sunny 63 17.3 60 15.6 90 90 N 6 9 30.12 1020 10 16.0934 0 0
8:35 pm 20:35 Sunny 62 16.5 58 14.5 88 88 N 5 7 30.12 1020 10 16.0934 0 0
8:55 pm 20:55 Clear 60 15.7 58 14.7 94 94 Calm 30.12 1020 10 16.0934 0 0
9:15 pm 21:15 Clear 59 15.1 58 14.6 97 97 Calm 30.15 1021 10 16.0934 0 0
9:35 pm 21:35 Clear 59 15 58 14.6 97 97 Calm 30.15 1021 10 16.0934 0 0
9:55 pm 21:55 Clear 59 14.8 58 14.5 98 98 Calm 30.15 1021 10 16.0934 0 0
10:15 pm 22:15 Clear 59 14.8 57 14.1 96 96 NNW 5 7 30.15 1021 10 16.0934 0 0
10:35 pm 22:35 Clear 57 13.9 56 13.3 96 96 N 3 6 30.21 1023 10 16.0934 0 0
10:55 pm 22:55 Clear 57 14 57 13.8 99 99 NNW 3 6 30.21 1023 10 16.0934 0 0
11:15 pm 23:15 Clear 58 14.2 57 13.8 97 97 NNW 3 6 30.21 1023 10 16.0934 0 0
11:35 pm 23:35 Clear 56 13.4 56 13.3 99 99 NNW 3 6 30.21 1023 10 16.0934 0 0
11:55 pm 23:55 Clear 55 13 55 13 100 100 N 3 6 30.21 1023 10 16.0934 0 0

Powered by AerisWeather